Regional Weather Roundup
Issued by NWS Northern Indiana

Home | Current Version | Previous Version | Text Only | Print | Product List | Glossary Off
Versions: 1 2 3 4 5 6 7 8 9 10 11 12 13 14 15 16 17 18 19 20 21 22 23 24 25 26 27 28 29 30 31 32 33 34 35 36 37 38 39 40 41 42 43 44 45 46 47 48 49 50

000
ASUS43 KIWX 281200
RWRIWX

KIWX WEATHER ROUNDUP
NATIONAL WEATHER SERVICE NORTHERN INDIANA
800 AM EDT SUN AUG 28 2016

NOTE: "FAIR" INDICATES FEW OR NO CLOUDS BELOW 12,000 FEET WITH NO
SIGNIFICANT WEATHER AND/OR OBSTRUCTIONS TO VISIBILITY.

* THESE STATIONS ARE NOT UNDER NWS QUALITY CONTROL. THEY ALSO MAY NOT
  REPORT WEATHER SUCH AS PRECIPITATION OR FOG.

INZ001>027-281300-
NORTHERN INDIANA

CITY           SKY/WX    TMP DP  RH WIND       PRES   REMARKS
GARY*          MOCLDY    72  72 100 CALM      30.17R
KNOX*          CLOUDY    72  59  64 S5        30.17R
SOUTH BEND     MOCLDY    72  71  97 CALM      30.18R
6HR MIN TEMP:  71; 6HR MAX TEMP:  74;

GOSHEN         PTCLDY    73  69  87 W3        30.18R
6HR MIN TEMP:  71; 6HR MAX TEMP:  74;

MONTICELLO*    CLEAR     69  65  88 CALM      30.17R FOG
6HR MIN TEMP:  69; 6HR MAX TEMP:  73;

ANGOLA*        CLEAR     72  63  73 CALM      30.19R
FORT WAYNE     CLOUDY    68  67  96 CALM      30.20R FOG
6HR MIN TEMP:  66; 6HR MAX TEMP:  70;

PERU/GRISSOM   PTCLDY    71  71 100 CALM      30.18R
6HR MIN TEMP:  69; 6HR MAX TEMP:  72;


$$
INZ028>050-281300-
CENTRAL INDIANA

CITY           SKY/WX    TMP DP  RH WIND       PRES   REMARKS
LAFAYETTE      CLEAR     69  69 100 CALM      30.17R
6HR MIN TEMP:  68; 6HR MAX TEMP:  72;

KOKOMO*        CLOUDY    70  70 100 SE3       30.20R VSB 3/4
6HR MIN TEMP:  66; 6HR MAX TEMP:  72;

MUNCIE*        PTCLDY    71  69  93 SE3       30.20R
6HR MIN TEMP:  69; 6HR MAX TEMP:  75;

INDIANAPOLIS   PTCLDY    73  71  93 SE5       30.18R
6HR MIN TEMP:  72; 6HR MAX TEMP:  75;


$$
MIZ043>046-050>051-056>058-064>065-071>073-077>080-281300-
SOUTHWEST LOWER MICHIGAN

CITY           SKY/WX    TMP DP  RH WIND       PRES   REMARKS
BATTLE CREEK   MOCLDY    69  69 100 S6        30.19R FOG
6HR MIN TEMP:  68; 6HR MAX TEMP:  70;

BENTON HARBOR  PTCLDY    71  69  93 CALM      30.17R FOG
6HR MIN TEMP:  70; 6HR MAX TEMP:  73;

COLDWATER*     PTCLDY    72  72  99 CALM      30.19R FOG
6HR MIN TEMP:  69; 6HR MAX TEMP:  73;

HILLSDALE*     CLOUDY    74  70  89 CALM      30.19R
6HR MIN TEMP:  51; 6HR MAX TEMP:  84;

HOLLAND        PTCLDY    71  69  93 CALM      30.18S
6HR MIN TEMP:  71; 6HR MAX TEMP:  75;

GRAND RAPIDS   MOCLDY    72  68  87 NW5       30.18R FOG
6HR MIN TEMP:  71; 6HR MAX TEMP:  73;

KALAMAZOO      PTCLDY    71  69  93 CALM      30.18R FOG
6HR MIN TEMP:  71; 6HR MAX TEMP:  74;

STURGIS*       MOCLDY    72  70  94 CALM      30.18R FOG
6HR MIN TEMP:  70; 6HR MAX TEMP:  73;


$$
OHZ001>008-015>018-024>025-281300-
NORTHWEST OHIO

CITY           SKY/WX    TMP DP  RH WIND       PRES   REMARKS
DEFIANCE       MOSUNNY   71  69  93 CALM      30.19R FOG
6HR MIN TEMP:  68; 6HR MAX TEMP:  71;

FINDLAY        SUNNY     70  66  87 CALM      30.19R
6HR MIN TEMP:  67; 6HR MAX TEMP:  72;

TOLEDO EXPRESS FOG       68  68 100 CALM      30.18R VSB 3/4
6HR MIN TEMP:  67; 6HR MAX TEMP:  69;

TOLEDO METCALF SUNNY     71  71 100 CALM      30.19S FOG
6HR MIN TEMP:  68; 6HR MAX TEMP:  71;

LIMA           SUNNY     69  69 100 CALM      30.20S
6HR MIN TEMP:  67; 6HR MAX TEMP:  71;


$$
AND FOR LAKE MICHIGAN COASTAL AND OPEN LAKE BUOY OBSERVATIONS

STATION/POSITION TEMP    WIND        PRES    VSBY  WAVE
                 AIR SEA DIR/SP/G                  HT/PER
                 (F)     (DEG/KT/KT) (MB)    (MI)  (FT/S)
CALUMET HARBOR    72      30/  3/  4 1020.5R
MICHIGAN CITY     73     200/  4/  4   N/A
BURNS HARBOR      73      CALM  /  8 1021.3R
SAINT JOSEPH      73      CALM  /  1 1021.7R
SOUTH LAKE BUOY   72 74   10/  6/  8 1020.2          1
4 MI NW BRIDGMAN  75 75   40/  2/  4 1020.7R         1
MICHIGAN CITY     75 76  260/  4/  6   N/A           0

$$
&&




USA.gov is the U.S. government's official web portal to all federal, state and local government web resources and services.